weather.gov     
National Weather Service

Terminal Aerodrome Forecast
NWS Homepage
This page is being discontinued on March 12, 2014.
The same data is available at this site. Please update your bookmarks.
Thank you, and we apologize for the inconvenience.
Please send an email to SR-SRH.Webmaster@noaa.gov with any concerns.


Current Version
Previous Version:    01  02  03  04  05  06  07  08  09  10  11  12  13  14  
[Printable]
987
FTUS41 KGYX 011729
TAFRKD
TAF
KRKD 011729Z 0118/0218 04008G16KT P6SM BKN015 OVC050
     FM020300 05010G16KT 4SM -DZ BR SCT003 OVC007
     FM020600 05010G16KT 1/2SM -DZ FG OVC001
     FM021000 05010G16KT 3SM BR OVC003
     FM021300 05011G17KT P6SM OVC025
      AMD LTD TO CLD VIS AND WIND=




987
FTUS41 KGYX 011729
TAFRKD
TAF
KRKD 011729Z 0118/0218 04008G16KT P6SM BKN015 OVC050
     FM020300 05010G16KT 4SM -DZ BR SCT003 OVC007
     FM020600 05010G16KT 1/2SM -DZ FG OVC001
     FM021000 05010G16KT 3SM BR OVC003
     FM021300 05011G17KT P6SM OVC025
      AMD LTD TO CLD VIS AND WIND=


U.S. Dept. of Commerce
NOAA National Weather Service
1325 East West Highway
Silver Spring, MD 20910
E-mail: w-nws.webmaster@noaa.gov
Page last modified: May 16, 2007
NATIONAL WEATHER SERVICE: for Safety, for Work, for Fun - FOR LIFE